Location: ?????????
(41.2393°N, 22.9479°E)
Time: 13:01:13
(UTC+00:00)

Cosmos 1782 Rocket - Pass Details

Date: 17 November 2025
Orbit: 600 x 626 km, 82.5° (Epoch: 06 December)

Event Time Altitude Azimuth Distance (km) Brightness Sun altitude
Rises 15:29:22 0° 185° (S) 2,895 7.4 -4.6°
Reaches altitude 10° 15:31:35 10° 185° (S) 1,993 6.5 -5.0°
Maximum altitude 15:36:00 86° 101° (E) 632 3.6 -5.8°
Drops below altitude 10° 15:40:28 10° 9° (N) 2,002 5.9 -6.6°
Sets 15:42:42 0° 9° (N) 2,910 6.7 -7.0°
